Weather reports worldwide

Advertisment
Bilbao/Aeropuerto, Spain (8025): temperature & dewpoint: 07.07.2020 06:00:00 - 13.07.2020 06:00:00 (CEST)Bilbao/Aeropuerto, Spain (8025): wind speed: 07.07.2020 06:00:00 - 13.07.2020 06:00:00 (CEST)Bilbao/Aeropuerto, Spain (8025): wind direction: 07.07.2020 06:00:00 - 13.07.2020 06:00:00 (CEST)Bilbao/Aeropuerto, Spain (8025): reduced air pressure: 07.07.2020 06:00:00 - 13.07.2020 06:00:00 (CEST)Bilbao/Aeropuerto, Spain (8025): visibility: 07.07.2020 06:00:00 - 13.07.2020 06:00:00 (CEST)
Date & Time tt [°C] td [°C] ff [km/h] ff [kn] dd ppp [hPa] vv [km]
13.07.2020 06:00:00 16,6 15,7 4 2 E 1023,5 -
13.07.2020 05:00:00 17,1 15,8 8 4 ESE 1023,2 30
13.07.2020 04:00:00 18,3 16,5 2 1 ESE 1023,3 -
13.07.2020 03:00:00 18,4 16,4 0 0 N 1023,3 -
13.07.2020 02:00:00 18,5 15,9 0 0 N 1023,4 -
13.07.2020 01:00:00 19,7 15,8 4 2 WSW 1023,3 -
13.07.2020 00:00:00 20,4 15,2 8 4 WNW 1023,3 -
12.07.2020 23:00:00 20,7 15,9 8 4 NNW 1023,1 20
12.07.2020 22:00:00 20,6 16,2 11 6 W 1022,6 -
12.07.2020 21:00:00 21,6 16,5 13 7 WNW 1022,2 -
12.07.2020 20:00:00 23,1 16,8 15 8 NNW 1020,9 25
12.07.2020 19:00:00 24,3 16,1 9 5 NNE 1020,5 -
12.07.2020 18:00:00 24,7 16,9 16 9 NNE 1020,0 -
12.07.2020 17:00:00 25,5 17,0 18 10 NNE 1019,7 30
12.07.2020 16:00:00 25,2 19,2 13 7 W 1019,4 -
12.07.2020 15:00:00 23,2 17,1 15 8 W 1019,0 -
12.07.2020 14:00:00 21,8 18,8 13 7 W 1019,2 35
12.07.2020 13:00:00 21,9 18,2 2 1 WSW 1019,8 -
12.07.2020 12:00:00 19,8 17,6 13 7 ESE 1019,3 -
12.07.2020 11:00:00 17,9 17,3 15 8 E 1019,8 35
12.07.2020 10:00:00 18,1 16,8 5 3 NE 1021,1 -
12.07.2020 09:00:00 17,7 16,9 28 15 E 1018,1 -
12.07.2020 08:00:00 17,4 16,8 11 6 SE 1019,8 12
12.07.2020 07:00:00 17,3 15,9 8 4 W 1022,4 -
12.07.2020 06:00:00 16,7 15,7 9 5 SE 1020,0 -
12.07.2020 05:00:00 16,3 15,2 5 3 ENE 1019,5 15
12.07.2020 04:00:00 16,2 15,1 5 3 NE 1019,4 -
12.07.2020 03:00:00 16,2 15,1 8 4 E 1019,8 -
12.07.2020 02:00:00 16,5 15,0 8 4 E 1020,3 -
12.07.2020 01:00:00 17,3 15,3 4 2 SE 1021,0 -
12.07.2020 00:00:00 18,2 15,3 0 0 N 1021,3 -
11.07.2020 23:00:00 19,9 15,3 0 0 N 1021,3 20
11.07.2020 22:00:00 21,0 15,1 4 2 ENE 1020,8 -
11.07.2020 21:00:00 22,0 15,8 15 8 ENE 1020,7 -
11.07.2020 20:00:00 23,2 16,0 15 8 NE 1020,6 25
11.07.2020 19:00:00 23,6 14,9 21 11 NNE 1020,6 -
11.07.2020 18:00:00 24,4 14,4 16 9 NNE 1020,8 -
11.07.2020 17:00:00 25,0 13,2 21 11 NNE 1021,0 35
11.07.2020 16:00:00 24,7 12,8 18 10 NE 1021,3 -
11.07.2020 15:00:00 24,5 14,5 18 10 NE 1021,7 -
11.07.2020 14:00:00 23,4 16,5 4 2 NE 1022,3 30
11.07.2020 13:00:00 21,3 15,4 11 6 NE 1022,7 -
11.07.2020 12:00:00 21,3 15,9 5 3 NNE 1022,6 -
11.07.2020 11:00:00 20,6 16,2 5 3 S 1022,7 25
11.07.2020 10:00:00 19,0 16,3 0 0 N 1022,8 -
11.07.2020 09:00:00 17,7 16,0 4 2 ENE 1022,8 -
11.07.2020 08:00:00 17,0 16,0 4 2 ENE 1022,7 20
11.07.2020 07:00:00 16,7 15,9 4 2 E 1022,5 -
11.07.2020 06:00:00 16,3 15,5 5 3 ESE 1022,4 -
11.07.2020 05:00:00 15,8 14,9 5 3 E 1022,4 20
11.07.2020 04:00:00 16,8 15,3 4 2 ENE 1022,4 -
11.07.2020 03:00:00 17,2 15,5 2 1 ESE 1022,7 -
11.07.2020 02:00:00 18,0 15,4 4 2 W 1022,9 -
11.07.2020 01:00:00 18,3 15,7 4 2 W 1022,9 -
11.07.2020 00:00:00 18,1 16,3 0 0 N 1022,8 -
10.07.2020 23:00:00 18,2 16,7 2 1 SE 1022,7 15
10.07.2020 22:00:00 18,2 16,8 2 1 W 1022,1 -
10.07.2020 21:00:00 18,1 16,8 8 4 W 1021,8 -
10.07.2020 20:00:00 18,8 17,5 5 3 W 1021,7 10
10.07.2020 19:00:00 19,3 17,0 11 6 WNW 1021,3 -
10.07.2020 18:00:00 19,8 17,3 8 4 WNW 1020,9 -
10.07.2020 17:00:00 19,8 17,7 9 5 NW 1021,1 10
10.07.2020 16:00:00 21,4 16,2 18 10 N 1020,9 -
10.07.2020 15:00:00 22,4 15,1 18 10 WNW 1020,9 -
10.07.2020 14:00:00 22,8 15,0 13 7 NW 1020,8 25
10.07.2020 13:00:00 21,2 15,5 11 6 WNW 1021,0 -
10.07.2020 12:00:00 19,9 17,3 8 4 NW 1021,1 -
10.07.2020 11:00:00 19,3 17,6 8 4 W 1021,0 20
10.07.2020 10:00:00 18,5 17,7 8 4 WNW 1021,0 -
10.07.2020 09:00:00 18,6 17,9 4 2 WNW 1020,7 -
10.07.2020 08:00:00 18,6 17,9 0 0 N 1020,3 3,5
10.07.2020 07:00:00 18,5 17,5 4 2 E 1019,9 -
10.07.2020 06:00:00 18,6 17,3 4 2 NNE 1019,8 -
10.07.2020 05:00:00 18,6 17,3 8 4 E 1019,8 15
10.07.2020 04:00:00 18,7 17,0 2 1 SSE 1019,7 -
10.07.2020 03:00:00 19,0 17,1 4 2 E 1020,4 -
10.07.2020 02:00:00 19,8 17,0 4 2 NNW 1020,6 -
10.07.2020 01:00:00 20,1 17,3 8 4 NW 1021,0 -
10.07.2020 00:00:00 20,3 17,5 4 2 NW 1020,8 -
09.07.2020 23:00:00 20,6 17,2 8 4 NW 1020,1 15
09.07.2020 22:00:00 20,6 17,4 8 4 NW 1019,5 -
09.07.2020 21:00:00 21,3 17,7 15 8 NW 1019,3 -
09.07.2020 20:00:00 22,0 18,0 11 6 WNW 1019,5 20
09.07.2020 19:00:00 23,5 17,8 16 9 WNW 1019,1 -
09.07.2020 18:00:00 23,3 17,7 16 9 NW 1019,1 -
09.07.2020 17:00:00 23,8 18,0 15 8 NW 1019,2 20
09.07.2020 16:00:00 23,7 18,2 15 8 WNW 1019,5 -
09.07.2020 15:00:00 24,6 18,6 16 9 WNW 1019,4 -
09.07.2020 14:00:00 24,3 18,5 11 6 NW 1019,7 20
09.07.2020 13:00:00 24,1 18,1 9 5 NNW 1020,0 -
09.07.2020 12:00:00 23,1 17,6 13 7 N 1019,9 -
09.07.2020 11:00:00 22,4 17,8 18 10 NW 1019,6 20
09.07.2020 10:00:00 21,3 17,7 8 4 W 1019,4 -
09.07.2020 09:00:00 19,8 17,4 0 0 N 1019,3 -
09.07.2020 08:00:00 17,9 16,8 5 3 E 1019,2 20
09.07.2020 07:00:00 17,0 16,2 5 3 ENE 1018,8 -
09.07.2020 06:00:00 17,5 16,2 4 2 NNW 1017,9 -
09.07.2020 05:00:00 17,9 16,6 9 5 ENE 1017,4 15
09.07.2020 04:00:00 18,3 16,6 4 2 E 1018,0 -
09.07.2020 03:00:00 19,0 16,8 8 4 E 1018,4 -
09.07.2020 02:00:00 19,6 17,0 5 3 ENE 1019,2 -
09.07.2020 01:00:00 20,3 16,9 4 2 NW 1018,9 -
09.07.2020 00:00:00 20,6 17,4 9 5 NW 1018,4 -
08.07.2020 23:00:00 20,8 17,2 5 3 W 1018,7 20
08.07.2020 22:00:00 22,3 15,9 4 2 NNW 1017,1 -
08.07.2020 21:00:00 23,5 16,8 15 8 W 1016,9 -
08.07.2020 20:00:00 25,4 14,7 13 7 NE 1016,4 25
08.07.2020 19:00:00 26,0 13,6 18 10 NNE 1016,2 -
08.07.2020 18:00:00 26,6 14,5 16 9 N 1016,1 -
08.07.2020 17:00:00 27,3 15,7 18 10 NE 1016,2 25
08.07.2020 16:00:00 27,7 14,2 18 10 NE 1016,5 -
08.07.2020 15:00:00 27,5 14,4 21 11 NNE 1016,8 -
08.07.2020 14:00:00 27,0 14,3 15 8 ENE 1017,1 25
08.07.2020 13:00:00 26,0 15,8 5 3 N 1017,5 -
08.07.2020 12:00:00 24,8 16,8 4 2 SSE 1017,8 -
08.07.2020 11:00:00 22,5 16,3 5 3 NNE 1018,1 25
08.07.2020 10:00:00 20,0 15,2 4 2 SE 1018,3 -
08.07.2020 09:00:00 17,5 14,9 8 4 ESE 1018,5 -
08.07.2020 08:00:00 15,2 13,9 9 5 E 1018,2 20
08.07.2020 07:00:00 14,0 13,2 9 5 E 1018,2 -
08.07.2020 06:00:00 14,0 13,0 8 4 E 1018,3 -
08.07.2020 05:00:00 14,2 13,2 8 4 ESE 1018,5 20
08.07.2020 04:00:00 14,8 13,5 4 2 ESE 1018,8 -
08.07.2020 03:00:00 15,5 13,9 5 3 ENE 1019,3 -
08.07.2020 02:00:00 16,1 13,9 4 2 E 1019,6 -
08.07.2020 01:00:00 16,7 14,1 5 3 E 1019,8 -
08.07.2020 00:00:00 18,1 14,0 5 3 ENE 1019,8 -
07.07.2020 23:00:00 19,0 13,8 8 4 ENE 1019,8 15
07.07.2020 22:00:00 19,9 14,0 9 5 E 1019,4 -
07.07.2020 21:00:00 21,2 14,4 18 10 ENE 1018,9 -
07.07.2020 20:00:00 22,3 14,9 21 11 NE 1018,9 25
07.07.2020 19:00:00 23,5 15,4 18 10 NE 1018,8 -
07.07.2020 18:00:00 24,0 14,3 16 9 NE 1019,0 -
07.07.2020 17:00:00 24,5 15,2 16 9 NE 1019,4 30
07.07.2020 16:00:00 24,4 14,8 13 7 ENE 1019,8 -
07.07.2020 15:00:00 23,6 13,8 15 8 NE 1020,2 -
07.07.2020 14:00:00 23,2 15,0 13 7 ENE 1020,7 40
07.07.2020 13:00:00 22,4 13,9 11 6 ENE 1021,2 -
07.07.2020 12:00:00 21,3 12,9 8 4 E 1021,5 -
07.07.2020 11:00:00 20,2 12,2 5 3 E 1021,9 30
07.07.2020 10:00:00 18,9 12,2 4 2 ESE 1022,2 -
07.07.2020 09:00:00 17,3 12,8 8 4 E 1022,3 -
07.07.2020 08:00:00 15,2 13,0 5 3 ENE 1022,4 30
07.07.2020 07:00:00 14,4 12,9 5 3 E 1022,4 -
07.07.2020 06:00:00 15,0 13,5 4 2 SE 1022,8 -

tt = temperature
td = dewpoint
ff = wind speed
dd = wind direction
ppp = reduced air pressure
vv = visibility

Next stations